Regional Weather Roundup
Issued by NWS Lake Charles, LA

Current Version | Previous Version | Text Only | Print | Product List | Glossary On
Versions: 1 2 3 4 5 6 7 8 9 10 11 12 13 14 15 16 17 18 19 20 21 22 23 24 25 26 27 28
000
ASUS44 KLCH 231110
RWRLCH
RWRLCH
REGIONAL WEATHER ROUNDUP
NATIONAL WEATHER SERVICE LAKE CHARLES LA
600 AM CDT THU OCT 23 2014

Note: "fair" indicates few or no clouds below 12,000 feet with no
significant weather and/or obstructions to visibility.


ACROSS SOUTHEAST TEXAS

CITY           SKY/WX    TMP DP  RH WIND       PRES   REMARKS
BEAUMONT       PTCLDY    60  51  72 NE7       30.07S
BEAUMONT CITY    N/A     58  52  79 NE6       30.08F
ORANGE         MOSUNNY   56  52  86 CALM      30.10S
JASPER         MOCLDY    56  50  81 CALM      30.12R
$$

ACROSS CENTRAL LOUISIANA

CITY           SKY/WX    TMP DP  RH WIND       PRES   REMARKS
LEESVILLE      MOCLDY    54  49  83 NE6       30.10S
FULLERTON        N/A     53  48  83 CALM      30.09S
ALEXANDRIA INT PTCLDY    49  47  93 CALM      30.11S
ESLER FIELD    PTCLDY    46  45  96 NE3       30.12R
DERIDDER         N/A     54  48  80 NE3       30.12S
OAKDALE        MOSUNNY   48  46  93 CALM      30.11S
OPELOUSAS        N/A     49  48  95 N3        30.09R
$$

ACROSS SOUTHWEST AND SOUTH CENTRAL LOUISIANA

CITY           SKY/WX    TMP DP  RH WIND       PRES   REMARKS
SULPHUR        SUNNY     57  51  81 N5        30.10R
LAKE CHARLES   CLEAR     56  50  80 NE7       30.08S
CHENNAULT INT  CLEAR     55  52  88 N7        30.09R
CAMERON PHI      N/A     57  54  88 NE9       30.10R
DEQUINCY         N/A     54  50  85 NE3       30.10R
JENNINGS         N/A     53  51  94 N5        30.09R
LAFAYETTE      CLEAR     52  50  93 N5        30.08S
NEW IBERIA     CLEAR     57  50  77 NE9       30.08S
ABBEVILLE        N/A     51  50  94 CALM      30.08R
PATTERSON      CLEAR     55  52  88 CALM      30.09R
SALT POINT       N/A     58  55  90 VRB3      30.05R
$$

SELECTED SITES ACROSS THE REGION

CITY           SKY/WX    TMP DP  RH WIND       PRES   REMARKS
HOUSTON BUSH   MOCLDY    62  54  74 N5        30.08S
HOUSTON HOBBY  PTCLDY    62  57  83 NE3       30.07R
GALVESTON      CLEAR     66  61  84 NE9       30.06S
COLLEGE STAT   LGT RAIN  64  56  75 E9        30.07F
CONROE         CLOUDY    60  53  77 CALM      30.09F
HUNTSVILLE     CLOUDY    61  56  83 CALM      30.10S
LUFKIN         CLOUDY    61  52  72 NE5       30.11R
SHREVEPORT     CLOUDY    56  49  77 E3        30.13R
MONROE         MOCLDY    48  45  89 NE6       30.15S
NATCHEZ MS     CLEAR     45  43  93 N3        30.12S
BATON ROUGE    CLEAR     51  46  83 CALM      30.09R
N.O. INTL ARPT CLEAR     63  50  62 E6        30.06R
SLIDELL        CLEAR     48  44  86 CALM      30.07R
$$

MARINE REPORTS

STATION/POSITION TIME  TEMP    WIND        PRES    VSBY  WAVE
                       AIR SEA DIR/SP/G                  HT/PER
                 (UTC) (F)     (DEG/KT/KT) (MB)    (MI)  (FT/S)
BUOY 30 S HIGH I 1100   72 78   50/ 14/ 16 1017.2R         3/ 5
SEA RIM ST PARK  1100   62      40/  7/  9 1018.8R
PORT ARTHUR      1100      75   40/  2/  6 1018.5S
SABINE PASS N    1100   61 73   30/ 10/ 11 1018.5R
TEXAS POINT      1100   59 73   10/  7/  9 1018.5R
CALCASIEU PASS   1100   59 72   50/  8/ 11   N/A
LK CHARLES BEACH 1100   57 77              1018.8S
MARSH ISLAND     NOT AVBL
FRESH WATER LOCK 1100   59 75   10/  4/  6 1017.7R
AMERADA PASS     1100   60 70   60/  4/  5 1017.7R
$$



USA.gov is the U.S. government's official web portal to all federal, state and local government web resources and services.